Precipitable_Water
0.48 0.44 0.36 0.36 0.34 0.33 0.30 0.29 0.28 0.28 0.29 0.29 0.29 0.29 0.30 0.33 0.33 0.29 0.29 0.33 0.39 0.42 0.45 0.45 0.47 0.49 0.52 0.54 0.55 0.54 0.53 0.52 0.49 0.49 0.50 0.50 0.49 0.49 0.49 0.49 0.49 0.49 0.50
0.44 0.38 0.36 0.35 0.34 0.33 0.32 0.31 0.30 0.29 0.29 0.30 0.31 0.31 0.31 0.33 0.33 0.32 0.30 0.30 0.31 0.32 0.35 0.40 0.42 0.46 0.49 0.52 0.54 0.54 0.52 0.50 0.49 0.50 0.50 0.49 0.49 0.49 0.50 0.50 0.50 0.50 0.50
0.40 0.38 0.37 0.35 0.35 0.35 0.34 0.33 0.32 0.32 0.32 0.32 0.32 0.33 0.33 0.33 0.33 0.32 0.30 0.30 0.30 0.31 0.32 0.35 0.39 0.42 0.46 0.49 0.50 0.50 0.49 0.47 0.46 0.47 0.46 0.47 0.47 0.47 0.47 0.48 0.48 0.48 0.49
0.41 0.38 0.37 0.36 0.36 0.36 0.35 0.33 0.32 0.32 0.33 0.34 0.35 0.36 0.35 0.35 0.34 0.33 0.31 0.30 0.29 0.30 0.32 0.36 0.38 0.39 0.43 0.46 0.47 0.47 0.47 0.46 0.46 0.45 0.45 0.46 0.47 0.47 0.48 0.49 0.49 0.50 0.51
0.41 0.38 0.38 0.37 0.37 0.35 0.34 0.34 0.34 0.32 0.33 0.35 0.37 0.37 0.37 0.36 0.35 0.34 0.32 0.32 0.30 0.31 0.31 0.33 0.34 0.37 0.42 0.42 0.42 0.44 0.44 0.44 0.44 0.43 0.44 0.44 0.45 0.47 0.48 0.49 0.50 0.51 0.51
0.41 0.39 0.39 0.38 0.36 0.35 0.35 0.35 0.34 0.35 0.35 0.35 0.35 0.37 0.38 0.38 0.37 0.35 0.35 0.34 0.34 0.33 0.33 0.33 0.34 0.39 0.39 0.39 0.39 0.39 0.42 0.42 0.41 0.41 0.42 0.43 0.45 0.46 0.48 0.49 0.50 0.51 0.52
0.40 0.40 0.39 0.37 0.36 0.35 0.35 0.34 0.34 0.34 0.33 0.36 0.36 0.38 0.40 0.40 0.38 0.38 0.38 0.38 0.36 0.35 0.34 0.35 0.37 0.38 0.38 0.37 0.35 0.37 0.37 0.38 0.39 0.40 0.42 0.44 0.46 0.47 0.48 0.50 0.50 0.51 0.52
0.40 0.40 0.39 0.37 0.37 0.35 0.34 0.34 0.33 0.32 0.33 0.37 0.36 0.37 0.34 0.38 0.39 0.38 0.40 0.40 0.38 0.38 0.36 0.38 0.38 0.37 0.36 0.36 0.34 0.34 0.34 0.35 0.38 0.41 0.43 0.45 0.47 0.47 0.48 0.49 0.50 0.50 0.50
0.40 0.39 0.39 0.38 0.38 0.37 0.35 0.34 0.34 0.33 0.32 0.35 0.38 0.37 0.33 0.32 0.36 0.40 0.40 0.41 0.41 0.38 0.38 0.38 0.38 0.36 0.36 0.35 0.34 0.32 0.32 0.34 0.37 0.40 0.42 0.45 0.46 0.47 0.48 0.48 0.49 0.50 0.50
0.39 0.39 0.39 0.39 0.38 0.38 0.36 0.36 0.35 0.35 0.35 0.34 0.37 0.39 0.39 0.38 0.31 0.31 0.38 0.41 0.43 0.40 0.39 0.38 0.38 0.37 0.36 0.36 0.34 0.33 0.33 0.35 0.37 0.39 0.41 0.43 0.44 0.46 0.47 0.48 0.47 0.48 0.46
0.41 0.39 0.39 0.39 0.39 0.38 0.38 0.37 0.36 0.36 0.37 0.36 0.38 0.38 0.38 0.37 0.36 0.33 0.32 0.36 0.40 0.40 0.39 0.39 0.38 0.37 0.36 0.35 0.33 0.33 0.35 0.34 0.36 0.37 0.38 0.40 0.42 0.43 0.43 0.44 0.44 0.43 0.43
0.46 0.42 0.40 0.38 0.39 0.38 0.37 0.37 0.37 0.36 0.37 0.38 0.40 0.40 0.39 0.37 0.37 0.35 0.35 0.36 0.37 0.37 0.39 0.39 0.38 0.37 0.36 0.36 0.35 0.35 0.34 0.35 0.35 0.34 0.36 0.38 0.40 0.40 0.39 0.39 0.39 0.40 0.41
0.48 0.46 0.44 0.40 0.39 0.39 0.38 0.38 0.37 0.37 0.37 0.38 0.40 0.42 0.43 0.42 0.42 0.40 0.38 0.37 0.37 0.39 0.38 0.39 0.38 0.38 0.37 0.36 0.34 0.35 0.35 0.33 0.32 0.33 0.34 0.36 0.35 0.34 0.34 0.35 0.36 0.37 0.38
0.53 0.51 0.48 0.46 0.43 0.41 0.39 0.39 0.38 0.38 0.38 0.39 0.41 0.43 0.44 0.45 0.44 0.42 0.40 0.38 0.37 0.38 0.39 0.38 0.40 0.38 0.38 0.37 0.36 0.35 0.33 0.32 0.31 0.32 0.32 0.32 0.32 0.31 0.32 0.33 0.33 0.33 0.34
0.60 0.55 0.52 0.49 0.47 0.44 0.41 0.40 0.40 0.40 0.40 0.41 0.42 0.45 0.46 0.47 0.47 0.46 0.44 0.42 0.38 0.35 0.37 0.41 0.37 0.39 0.38 0.37 0.36 0.36 0.34 0.31 0.32 0.30 0.29 0.29 0.29 0.28 0.28 0.29 0.29 0.30 0.32
0.64 0.60 0.55 0.52 0.50 0.47 0.45 0.43 0.42 0.42 0.42 0.43 0.45 0.47 0.48 0.50 0.49 0.49 0.47 0.45 0.43 0.39 0.37 0.43 0.40 0.39 0.39 0.37 0.37 0.35 0.33 0.31 0.29 0.28 0.27 0.26 0.25 0.26 0.26 0.27 0.27 0.29 0.30
0.66 0.62 0.60 0.55 0.52 0.51 0.49 0.46 0.45 0.44 0.44 0.45 0.47 0.49 0.50 0.52 0.51 0.50 0.49 0.48 0.45 0.42 0.39 0.43 0.42 0.41 0.39 0.38 0.36 0.35 0.32 0.29 0.28 0.26 0.24 0.24 0.24 0.24 0.24 0.25 0.26 0.28 0.29
0.67 0.67 0.64 0.60 0.55 0.54 0.52 0.49 0.47 0.47 0.47 0.47 0.48 0.50 0.52 0.53 0.53 0.52 0.51 0.48 0.46 0.45 0.43 0.41 0.42 0.41 0.40 0.39 0.37 0.33 0.30 0.28 0.25 0.24 0.23 0.23 0.22 0.23 0.24 0.25 0.26 0.26 0.27
0.63 0.66 0.65 0.63 0.61 0.57 0.56 0.54 0.52 0.51 0.50 0.49 0.51 0.53 0.53 0.54 0.53 0.53 0.52 0.50 0.48 0.46 0.45 0.42 0.41 0.43 0.41 0.39 0.35 0.32 0.29 0.25 0.24 0.24 0.23 0.23 0.22 0.22 0.24 0.24 0.25 0.25 0.26
0.59 0.62 0.64 0.64 0.64 0.62 0.60 0.58 0.56 0.53 0.52 0.52 0.53 0.54 0.55 0.55 0.54 0.54 0.54 0.51 0.49 0.46 0.44 0.43 0.42 0.41 0.40 0.38 0.34 0.28 0.24 0.24 0.22 0.24 0.24 0.23 0.22 0.22 0.22 0.23 0.23 0.23 0.24
0.60 0.60 0.64 0.64 0.64 0.64 0.62 0.61 0.59 0.56 0.54 0.53 0.55 0.55 0.56 0.57 0.58 0.57 0.56 0.52 0.50 0.45 0.44 0.43 0.42 0.41 0.38 0.34 0.30 0.28 0.23 0.24 0.24 0.24 0.21 0.21 0.20 0.21 0.20 0.22 0.21 0.22 0.24
0.64 0.63 0.62 0.63 0.63 0.64 0.65 0.65 0.61 0.58 0.56 0.55 0.55 0.57 0.58 0.59 0.58 0.61 0.60 0.56 0.53 0.47 0.45 0.43 0.42 0.40 0.36 0.34 0.31 0.27 0.25 0.23 0.20 0.25 0.21 0.19 0.20 0.18 0.19 0.20 0.21 0.22 0.24
0.64 0.60 0.59 0.61 0.62 0.63 0.65 0.67 0.64 0.60 0.57 0.56 0.56 0.57 0.58 0.60 0.60 0.59 0.59 0.56 0.52 0.50 0.48 0.46 0.42 0.39 0.36 0.34 0.31 0.27 0.26 0.24 0.22 0.23 0.20 0.16 0.18 0.17 0.19 0.20 0.20 0.22 0.25
0.61 0.60 0.59 0.60 0.60 0.61 0.65 0.65 0.64 0.60 0.58 0.57 0.58 0.58 0.59 0.59 0.59 0.58 0.56 0.53 0.50 0.48 0.46 0.45 0.44 0.40 0.38 0.36 0.32 0.29 0.27 0.25 0.24 0.23 0.21 0.15 0.18 0.16 0.18 0.20 0.21 0.22 0.24
0.61 0.59 0.60 0.60 0.60 0.59 0.63 0.63 0.62 0.58 0.56 0.57 0.59 0.61 0.61 0.60 0.62 0.62 0.56 0.51 0.47 0.45 0.46 0.46 0.43 0.40 0.36 0.33 0.30 0.28 0.23 0.22 0.19 0.20 0.20 0.19 0.18 0.17 0.17 0.17 0.19 0.20 0.23
0.63 0.62 0.61 0.60 0.59 0.59 0.62 0.63 0.62 0.57 0.56 0.58 0.60 0.62 0.64 0.64 0.62 0.59 0.54 0.49 0.44 0.44 0.45 0.41 0.37 0.34 0.32 0.30 0.29 0.27 0.25 0.21 0.20 0.19 0.20 0.20 0.19 0.19 0.14 0.18 0.19 0.21 0.22
Wind_Speed
23 21 19 17 16 13 12 9 8 6 6 5 5 4 5 5 6 7 8 8 9 9 10 11 12 13 13 13 13 13 13 13 14 15 16 17 18 18 19 20 21 21 22
25 23 21 19 17 15 12 10 8 7 6 6 6 6 6 6 7 8 9 9 9 10 11 12 13 14 14 14 14 14 14 15 16 17 18 19 19 20 21 22 23 24 25
26 24 22 20 18 16 14 11 9 8 7 7 7 6 7 7 8 9 10 10 11 11 12 13 14 15 16 16 16 16 16 17 18 19 20 20 21 22 23 24 25 26 27
28 25 24 21 20 18 15 13 11 9 8 8 8 8 8 9 10 10 11 11 12 13 13 14 15 16 17 17 18 18 19 20 20 21 21 23 24 25 26 27 28 29 30
29 27 25 23 22 19 17 15 13 11 10 10 9 9 10 11 11 11 12 13 13 14 15 15 16 17 18 18 19 20 21 22 22 23 24 25 26 27 29 30 31 32 33
31 29 27 25 23 21 19 17 15 13 12 11 11 11 12 12 12 12 13 14 15 15 16 17 18 18 19 20 21 22 23 24 25 26 27 28 29 30 32 33 34 35 36
32 31 29 27 25 23 21 19 17 15 14 14 13 13 13 14 14 14 14 15 16 16 17 18 19 20 21 22 23 24 25 26 27 28 30 31 32 33 34 36 37 38 39
34 33 31 29 27 25 23 21 19 17 16 16 15 15 15 15 16 15 16 16 17 17 18 19 20 21 22 23 24 25 27 28 30 31 32 33 35 36 38 39 40 41 42
36 34 33 31 29 27 25 23 21 20 18 18 17 17 16 17 16 17 17 17 18 18 19 21 21 22 24 24 25 27 29 31 32 34 35 36 38 39 40 41 42 43 44
37 36 34 33 31 29 27 25 23 22 20 19 19 19 18 18 18 18 19 19 20 20 21 23 24 25 25 26 28 30 32 33 35 36 38 39 40 41 42 43 44 45 46
38 37 36 34 32 30 28 27 25 23 22 21 20 20 20 20 20 20 20 21 21 22 23 24 25 26 27 28 30 32 34 36 37 39 40 41 42 43 44 45 46 47 48
38 38 37 35 34 32 30 28 26 25 23 22 22 22 21 21 22 21 22 22 23 23 24 25 26 27 28 30 32 35 37 38 39 40 42 43 44 45 46 47 48 49 50
38 38 38 37 35 34 32 30 28 26 25 24 23 23 23 23 22 23 23 23 24 24 25 26 27 28 29 31 35 38 39 40 41 42 44 45 46 46 47 48 50 51 53
40 39 39 38 37 35 33 31 29 28 26 25 25 24 24 24 24 24 24 24 25 25 26 26 27 28 30 34 38 39 40 41 43 44 45 46 47 48 49 51 52 54 57
41 40 40 39 38 37 35 33 31 29 28 27 26 25 25 25 25 25 25 25 25 25 26 27 28 30 34 38 40 41 42 43 44 46 46 47 48 49 50 52 54 56 58
42 42 42 41 40 38 37 35 33 31 29 28 27 27 26 26 26 26 27 27 27 27 27 28 30 34 37 39 41 42 43 44 45 45 46 48 49 50 52 54 56 58 61
43 43 43 42 42 40 39 37 35 33 31 30 29 28 28 27 28 28 28 29 29 30 30 31 33 36 38 40 42 42 44 45 45 46 47 49 50 52 54 56 58 60 62
42 43 43 44 43 42 40 38 36 35 33 32 30 30 29 29 29 29 30 30 31 32 33 34 36 38 40 41 43 44 45 46 46 47 48 51 52 54 56 57 59 61 62
42 42 43 44 44 43 42 40 38 36 34 33 32 31 30 30 30 31 31 32 32 33 34 36 38 39 41 42 43 45 45 46 47 48 51 52 54 55 57 58 60 62 63
41 41 42 43 43 43 43 41 39 37 36 34 33 32 32 32 32 32 32 32 33 34 35 37 38 40 42 43 45 46 46 46 48 50 52 53 55 57 58 60 61 63 63
41 41 41 42 43 43 43 42 40 39 37 35 34 34 33 33 32 33 33 33 34 34 36 37 38 40 42 43 45 47 48 49 50 50 52 55 57 58 59 60 62 63 63
40 40 41 41 42 43 43 43 42 40 38 37 36 34 34 33 33 33 34 34 34 35 36 37 39 41 42 44 46 47 48 50 49 50 57 58 58 59 60 62 64 65 66
41 41 41 41 41 42 43 43 42 41 39 38 36 35 34 34 33 33 33 34 34 35 37 39 40 41 43 45 47 48 49 51 52 56 58 60 59 61 62 63 65 66 66
40 40 40 40 40 41 42 42 42 41 39 38 37 35 34 34 33 33 33 34 34 36 37 38 40 41 43 46 46 48 51 53 53 55 56 60 61 63 64 65 67 67 65
39 39 39 39 39 40 41 41 41 40 39 37 36 35 34 34 33 33 33 34 35 36 37 38 40 42 44 45 46 48 50 51 54 56 57 59 61 66 66 67 66 67 64
39 38 38 39 39 39 40 40 40 39 38 36 35 34 34 33 33 33 33 34 34 35 37 37 39 41 43 44 46 47 49 51 54 56 55 60 64 64 65 67 68 66 56
Wind_Direction
200 198 199 200 201 201 203 205 211 221 230 244 259 272 285 289 299 308 316 323 326 328 333 337 340 341 340 338 334 329 325 323 320 316 313 310 307 305 303 301 299 297 296
201 202 203 204 203 205 206 210 217 225 235 248 261 273 281 287 292 299 306 313 317 319 321 328 331 334 333 332 331 328 324 321 319 315 312 309 308 305 303 301 299 298 296
204 204 205 206 207 207 209 213 220 228 240 253 265 273 280 285 291 294 298 304 310 311 315 319 324 327 328 328 328 326 323 320 317 315 312 310 308 306 304 302 301 299 297
206 206 208 209 209 210 214 219 226 236 247 257 267 275 281 287 290 292 294 299 304 307 308 312 317 322 323 324 324 323 321 319 317 315 313 311 309 307 305 303 301 299 297
208 209 210 211 212 215 219 224 232 240 249 258 266 275 281 287 290 290 292 295 301 304 305 308 313 317 319 320 320 321 319 318 316 314 313 311 309 307 305 303 301 300 298
210 211 212 214 215 219 224 229 235 243 250 258 266 274 281 286 289 290 292 292 299 302 303 306 310 314 315 317 318 317 317 316 315 313 312 310 309 307 305 304 302 300 298
213 213 215 216 219 223 226 230 236 242 252 258 264 275 281 284 287 289 290 292 296 299 301 304 307 311 313 315 315 316 316 315 314 313 311 310 309 307 306 304 302 300 298
215 216 217 220 222 225 228 232 237 243 253 257 265 272 279 283 284 286 289 291 294 298 299 302 305 307 310 313 314 315 316 315 314 312 311 310 309 307 306 304 303 301 299
217 218 219 221 224 227 230 234 238 245 252 258 263 270 278 278 282 286 285 289 293 295 297 302 303 305 308 310 312 313 315 314 313 312 311 309 308 307 306 304 302 301 300
218 220 221 223 225 228 232 235 240 246 251 256 263 269 274 277 280 285 286 288 291 292 295 300 301 304 306 308 311 312 313 313 312 311 310 309 308 307 306 304 303 302 301
219 221 222 224 227 230 233 236 240 246 251 255 262 266 272 277 280 283 285 288 290 292 295 297 300 303 304 306 309 311 312 312 312 311 311 310 309 308 307 306 304 303 302
221 223 224 226 228 231 234 237 241 245 250 256 261 265 270 276 279 283 286 287 288 292 295 296 299 301 303 306 308 311 312 312 312 311 311 310 309 308 307 306 305 304 303
223 224 225 227 229 231 234 237 241 245 250 255 259 264 270 274 279 282 285 287 289 291 294 298 299 301 304 306 309 311 311 311 311 311 311 310 309 308 307 306 305 304 304
225 225 226 228 230 232 234 237 242 246 250 254 259 264 269 274 278 281 285 287 290 290 292 295 299 300 303 307 309 311 311 311 311 311 311 310 309 309 308 307 306 305 304
227 227 228 229 231 232 235 238 242 245 249 254 258 263 267 273 277 280 284 286 288 289 292 296 298 300 304 307 309 310 310 311 311 311 311 310 309 309 308 307 307 306 305
228 228 229 230 231 233 236 238 242 245 248 253 257 261 267 272 276 280 283 285 286 288 290 293 298 301 305 307 309 310 310 310 311 311 310 310 310 309 309 308 307 307 306
229 229 230 231 232 234 236 238 241 244 247 251 256 260 266 270 275 279 282 285 286 287 289 294 298 302 305 306 308 309 310 310 310 310 310 310 310 310 309 309 309 308 307
231 231 231 232 233 235 236 238 240 243 246 250 254 259 265 270 274 278 282 284 285 287 290 294 299 302 304 306 307 308 309 310 310 310 311 311 311 311 311 310 310 310 309
231 231 232 232 233 235 236 238 240 243 246 250 254 258 264 268 273 278 281 283 285 287 290 294 298 302 304 306 307 308 309 310 310 311 312 311 312 311 312 311 311 311 311
231 232 233 233 234 235 236 238 240 243 246 250 254 259 263 268 273 277 280 282 285 287 290 294 298 301 304 306 307 309 309 310 310 312 312 312 312 312 312 312 313 312 312
232 233 233 234 235 235 236 237 239 243 246 249 253 258 263 268 272 277 280 282 284 287 290 293 297 301 304 306 308 309 309 310 310 312 312 313 313 313 313 313 314 313 312
231 232 233 234 235 236 236 237 239 243 245 248 252 257 263 267 272 276 279 281 283 286 290 293 297 300 303 305 308 308 309 311 311 312 313 313 314 314 314 314 314 313 312
232 233 234 235 236 237 236 237 239 242 244 248 252 256 262 267 271 277 279 280 283 286 290 294 297 299 303 305 307 308 309 310 310 312 313 313 315 314 315 315 315 314 313
232 234 235 235 236 238 237 237 238 241 244 247 251 256 261 265 271 274 278 280 283 287 291 294 297 299 303 306 307 308 309 309 311 312 315 313 315 315 316 315 316 316 315
233 234 234 235 236 237 236 236 238 239 242 246 250 255 260 265 269 273 277 281 285 288 291 295 297 300 304 306 308 309 310 312 313 314 316 313 316 315 316 317 318 318 316
233 234 235 236 236 236 235 235 237 239 241 245 249 254 259 264 268 272 278 282 285 288 292 295 298 302 305 307 309 310 311 312 314 315 317 316 316 318 317 319 320 320 317